Погода в Симферополе

Погода в Симферополе : погода сейчас, прогноз погоды и архив. Всё, что Вы хотите узнать о погоде в Симферополе!

Хотите узнать прогноз погоды в Симферополе? Тогда Вам сюда: Погода в Симферополе

Поиск расширенной информации на нашем сайте:

Другие новости

Новости СМИ2

Главная страница сайта

Новости сайта

03.07.2017

Напоминаем, что на нашем специализированном сайте Метеоцентр.Азия вы можете получить высокодетализированные автоматические прогнозы погоды по пунктам России, СНГ и мира в авиационном формате (включающие направление и скорость ветра, видимость, явления погоды, количество и форму облачности, нижнюю и верхнюю границу облачности).


Погода в Симферополе - сегодня

Время (UTC), дата Ветер
(°,м/с) 
Видим.   Явления Облачность Т
(°С)
Тd
(°С)
f(%) Тe
(°С)
Pmin
(гПа)
dP
(гПа)
Po
(мм)
O2
(г/м3)
Тmin Tmax R s Состояние
почвы
03 17.04.18 120 (ЮВ) 10 км    3/0 верхняя 
[Ci fib]
+5.7 -0.2 66 +5  1021.3  -0.3  749  296  +5.5         
06 17.04.18 340 (С) 10 км    4/0 верхняя 
[Ci fib]
+14 +1.9 44 +15  1021.4  0.7  750  287  +5.1        сухая 
09 17.04.18 350 (С) 10 км    10/0 верхняя 
[Ci fib]
+19.9 +5.2 38 +21  1020.3  -0.6  749  281           
12 17.04.18 270 (З) 10 км    10/0 верхняя 
[Ci fib]
+19 +5.8 42 +19  1020.2  -0.2  749  281           
18 17.04.18 180 (Ю) 10 км    10/0 верхняя 
[Ci fib]
+12.3 +5.2 62 +13  1021.7  0.8  750  288    +21.9       
21 17.04.18 тихо ()   10 км    10/0 верхняя 
[Ci fib]
+11.1 +5 66 +11  1021.8  750  290           
00 18.04.18 160 (Ю) 10 км    6/0 верхняя 
[Ci fib]
+8 +3.3 72 +7  1022.2  0.2  750  293           
03 18.04.18 190 (Ю) 10 км    10/0 верхняя 
[Ci fib]
+9.2 +3.4 67 +9  1022.9  0.7  751  292  +6.9         
06 18.04.18 220 (ЮЗ) 10 км    8/0 верхняя 
[Ci fib]
+15.4 +5.6 52 +16  1023.3  0.9  751  286  +6.9        сухая 
09 18.04.18 010 (С) 10 км    5/0 верхняя 
[Ci fib]
+19.9 +5.2 38 +21  1022.7  -0.3  751  281           
12 18.04.18 270 (З) 10 км    1/0 верхняя 
[Cc]
+22.2 +5.6 34 +22  1021.3  -1.2  750  279           
15 18.04.18 270 (З) 6{10}  10 км    ясно 
+19.5 +4.4 37 +20  1020.8  -0.7  750  281           
18 18.04.18 210 (ЮЗ) 10 км    6/0 средняя 
[Ac trans]
+11.9 +4.4 60 +11  1022.2  0.9  750  289    +23       
21 18.04.18 190 (Ю) 10 км    8/0 средняя 
[Ac trans]
+11.8 +4.8 62 +12  1020.9  -1.3  749  289           
00 19.04.18 170 (Ю) 10 км  {ливн. осадки}  10/0 средняя, верхняя 
[Ac trans|Ci fib]
+10 +8.4 90 +9  1019.9  -1.1  749  289           
03 19.04.18 180 (Ю) 10 км    3/0 средняя 
[Ac trans]
+7.4 +6.3 93 +7  1019  -1.1  748  292  +7.3       
06 19.04.18 240 (ЮЗ) 10 км    8/0 средняя 
[Ac trans]
+14 +9.8 76 +15  1017.7  -0.8  747  285  +7.3       
15 19.04.18 270 (З) 9-12  10 км    8/5 1380 м средняя 
[Sc|Ac trans]
+15.1 +7.6 61 +14  1012.7  -1.3  743  283           
18 19.04.18 240 (ЮЗ) 3{12}  10 км    4/0 средняя 
[Ac trans]
+10.2 +8 86 +10  1012.5  -0.5  743  287    +18.5       
21 19.04.18 170 (Ю) 3{10}  10 км  в посл. час ливневой дождь  8/4 870 м кучево-дожд., средняя 
[Cb calv|Ac lent]
+9.4 +8.3 93 +9  1011.8  -0.8  743  288           
06 20.04.18 340 (С) 10 км    10/10 840 м 
[Sc]
+9.5 +7.4 87 +8  1012.2  1.1  743  288  +7.7    0.6     
09 20.04.18 330 (СЗ) 10 км    10/9 720 м средняя 
[Sc|Ac und]
+11.6 +6.9 73 +10  1013.3  1.2  744  286           
15 20.04.18 280 (З) 10 км  {ливн. осадки}  9/3 1500 м средняя 
[Sc|Ac trans]
+14.1 +5.5 56 +15  1014.2  0.2  745  284      0.0     
18 20.04.18 160 (Ю) 10 км  {ливн. осадки}  4/0 средняя 
[Ac trans]
+9.5 +6.2 80 +10  1016.1  1.5  746  289    +15.4  0.0     
21 20.04.18 190 (Ю) 10 км    6/0 средняя 
[Ac trans]
+8.1 +5.6 84 +9  1017.2  746  291           
Время (UTC), дата Ветер
(°,м/с) 
Видим.   Явления Облачность Т
(°С)
Тd
(°С)
f(%) Тe
(°С)
Pmin
(гПа)
dP
(гПа)
Po
(мм)
O2
(г/м3)
Тmin Tmax R s Состояние
почвы

Для получения пояснительной информации подведите курсор к названию столбца.

ПОГОДА в Симферополе - архив

Всё, что Вы хотите узнать о погоде в Симферополе - удобно и подробно!

Выберите нужную дату (начиная с 1 января 2015* года) и нажмите кнопку "Найти".
Будут отображены архивные сводки погоды по пункту Симферополь, начиная с указанной даты.


Отображать данные в формате CSV (для использования в таблицах Excel)


Внимание! Наш архив погоды предназначен исключительно для личного некоммерческого использования в познавательных целях. Если Вам необходимы официальные справки о состоянии погоды (для производственных, юридических, коммерческих и т.п. целей), обращайтесь в органы Росгидромета.

*Примечание: данная дата относится к архиву по метеостанциям СССР (Россия, СНГ, Балтия).
Архив по метеостанциям Зарубежной Европы и Азии (кроме Китая) хранится 10 дней, по другим регионам земного шара (Китай, Африка, Америка, Австралия, Океания) - 1 день.

Симферополь - район местоположения метеостанции


Название, широта, долгота, высота метеостанции:
Симферополь 44.7°ш. 34.1°д. 181 м над ур. моря [Российская Федерация]

Дополнительная информация

В oтличие oт бoльшинства пoгoдных сайтoв мы публикуем пoдрoбную метеoинфoрмацию в детальнoм прoфессиoнальнoм фoрмате.

Характеристики температуры и влажнoсти вoздуха измеряются на высoте 2 м в тени вдали oт зданий и деревьев.
Скoрoсть ветра измеряется на высoте 10 м (на урoвне рoста челoвека скoрoсть ветра ниже в 1.5-2 раза). Если метеoстанция нахoдится в гoрoде или в лесу, тo скoрoсть ветра занижена на 2-4 м/с пo сравнению с oткрытым местoм. Скoрoсть ветра над акватoриями крупных рек и oзёр, а также на вершинах хoлмoв на 2-5 м/с выше, чем в oбычных услoвиях.
Атмoсфернoе давление в разных тoчках местнoсти мoжет значительнo oтличаться oт давления на метеoстанции, в зависимoсти oт услoвий рельефа (при пoдъёме на 10 м давление пoнижается примернo на 1 мм рт.ст.).